This is the latest recevied weather packets stored in our database for station/object KB4RFE. If no packets are shown the sender has not sent any weather packets the latest 10 day(s).
| Time | Temp. | Humidity | Pressure | Rain* | Wind** | Luminosity | Snow |
|---|---|---|---|---|---|---|---|
| 1788482497 | 27.78° C | 88% | 1019 hPa | 0 mm | - | 0 W/m² | - |
| 1788482193 | 27.78° C | 89% | 1019 hPa | 0 mm | - | 0 W/m² | - |
| 1788481890 | 27.78° C | 88% | 1019.3 hPa | 0 mm | - | 0 W/m² | - |
| 1788481585 | 27.78° C | 88% | 1019 hPa | 0 mm | - | 0 W/m² | - |
| 1788481285 | 27.78° C | 88% | 1019.1 hPa | 0 mm | - | 0 W/m² | - |
| 1788480981 | 28.33° C | 88% | 1019 hPa | 0 mm | - | 0 W/m² | - |
| 1788480679 | 28.33° C | 88% | 1019.1 hPa | 0 mm | - | 0 W/m² | - |
| 1788480375 | 28.33° C | 88% | 1018.9 hPa | 0 mm | - | 0 W/m² | - |
| 1788480071 | 28.33° C | 88% | 1018.9 hPa | 0 mm | - | 0 W/m² | - |
| 1788479770 | 28.33° C | 88% | 1018.9 hPa | 0 mm | - | 0 W/m² | - |
| 1788479467 | 28.33° C | 87% | 1019 hPa | 0 mm | - | 1 W/m² | - |
| 1788479161 | 28.33° C | 87% | 1019.2 hPa | 0 mm | - | 2 W/m² | - |
| 1788478857 | 28.33° C | 87% | 1019.1 hPa | 0 mm | - | 3 W/m² | - |
| 1788478553 | 28.33° C | 86% | 1019.1 hPa | 0 mm | - | 6 W/m² | - |
| 1788478248 | 28.89° C | 86% | 1019.1 hPa | 0 mm | - | 9 W/m² | - |
| 1788477943 | 28.89° C | 86% | 1019.2 hPa | 0 mm | - | 11 W/m² | - |
| 1788477638 | 28.89° C | 85% | 1018.9 hPa | 0 mm | - | 14 W/m² | - |
| 1788477333 | 28.89° C | 85% | 1019 hPa | 0 mm | - | 16 W/m² | - |
| 1788477027 | 28.89° C | 85% | 1019.1 hPa | 0 mm | - | 19 W/m² | - |
| 1788476723 | 28.89° C | 85% | 1018.9 hPa | 0 mm | - | 23 W/m² | - |
| 1788476421 | 29.44° C | 84% | 1019 hPa | 0 mm | - | 31 W/m² | - |
| 1788476120 | 29.44° C | 84% | 1019.1 hPa | 0 mm | - | 30 W/m² | - |
| 1788475816 | 29.44° C | 83% | 1019 hPa | 0 mm | - | 37 W/m² | - |
| 1788475512 | 29.44° C | 83% | 1018.9 hPa | 0 mm | - | 37 W/m² | - |
| 1788475208 | 29.44° C | 82% | 1018.8 hPa | 0 mm | - | 31 W/m² | - |
* Rain latest hour (hover to see other rain measurements)
** Current wind speed in m/s (hover to see current wind gust speed)